User: anonymous   Login
Location: Unspecified
(0.0000°N, 0.0000°E)
Time: 08:35:16
(UTC+00:00)
Language:

Cosmos 2499 - Orbit

View from above orbital plane
View from above orbital plane
View from above satellite
View from above satellite

Ground track
Ground track

The orbit data is extracted from the following two-line orbital elements,

1 39765U 14028E   24105.19859278  .00000066  00000-0  20040-3 0  9997
2 39765  82.4482  68.1811 0232819  65.8095 296.7153 12.82871244463435
Epoch (UTC): 14 April 2024 04:45:58
Eccentricity: 0.0232819
inclination: 82.4482°
perigee height: 1150 km
apogee height: 1509 km
right ascension of ascending node: 68.1811°
argument of perigee: 65.8095°
revolutions per day: 12.82871244
mean anomaly at epoch: 296.7153°
orbit number at epoch: 46343

The dashed part of the orbit path shows where the satellite is in the earth's shadow,  

DLR